Powrót do katalogu

CZ-6A DEB

AktywnySSO
NORAD 56582·DEBRIS·🇨🇳 China

Wystrzelony Nov 11, 2022 z Taiyuan Satellite Launch Center

Loading…

Następne Przeloty (najbliższe 24 godziny)

TLE

ŚwieżeSource: Space-Track

Epoka: Sep 14, 2026, 00:02 UTC

1 56582U 22151ADE 26257.00179789  .00000936  00000-0  41551-3 0  9997
2 56582  98.7593 276.1072 0010027  70.9047 289.3218 14.25380282187544

Śledź CZ-6A DEB w czasie rzeczywistym z AllMySat

Download on the App Store